FW0858 Weather Reports


Display with metric or nautical units.
time (UTC)temp
F
wind
direction
speed
MPH
gust
MPH
rain 1hr
in
rain 24hr
in
rain mn
in
humidity
%
barometer
mb
20260504185323 60 229 12.0 21.0 0.00 0.00 0.00 78 1011.0
20260504184824 60 233 12.0 21.0 0.00 0.00 0.00 78 1011.1
20260504184323 60 232 10.0 19.0 0.00 0.00 0.00 77 1011.1
20260504183824 60 231 11.0 18.0 0.00 0.00 0.00 78 1011.2
20260504183325 60 261 11.0 20.0 0.00 0.00 0.00 77 1011.2
20260504182819 60 250 12.0 20.0 0.00 0.00 0.00 77 1011.2
20260504182312 60 219 12.0 20.0 0.00 0.00 0.00 78 1011.3
20260504181807 60 214 12.0 19.0 0.00 0.00 0.00 79 1011.4
20260504181301 60 250 12.0 19.0 0.00 0.00 0.00 78 1011.4
20260504180755 60 222 11.0 18.0 0.00 0.00 0.00 79 1011.5
20260504180248 60 248 10.0 17.0 0.00 0.00 0.00 79 1011.6
20260504175742 60 211 9.0 16.0 0.00 0.00 0.00 80 1011.6
20260504175237 60 269 9.0 17.0 0.00 0.00 0.00 80 1011.5
20260504174731 59 234 10.0 20.0 0.00 0.00 0.00 79 1011.5
20260504173718 59 210 10.0 18.0 0.00 0.00 0.00 80 1011.6
20260504173218 59 207 10.0 17.0 0.00 0.00 0.00 81 1011.7
20260504172717 59 225 10.0 17.0 0.00 0.00 0.00 81 1011.8
20260504172218 59 259 9.0 16.0 0.00 0.00 0.00 81 1011.8
20260504171719 59 222 9.0 16.0 0.00 0.00 0.00 81 1012.0
20260504171219 59 231 10.0 17.0 0.00 0.00 0.00 81 1012.1
20260504170717 59 280 10.0 17.0 0.00 0.00 0.00 81 1012.1
20260504150712 58 238 9.0 15.0 0.00 0.00 0.00 77 1013.2
20260504150212 58 260 9.0 16.0 0.00 0.00 0.00 76 1013.3
20260504141206 58 238 8.0 15.0 0.00 0.00 0.00 77 1013.3
20260504140705 58 217 8.0 15.0 0.00 0.00 0.00 77 1013.3
20260504140202 58 249 8.0 13.0 0.00 0.00 0.00 76 1013.3
20260504130655 56 248 8.0 16.0 0.00 0.00 0.00 73 1013.9
20260504130155 56 285 8.0 16.0 0.00 0.00 0.00 72 1013.9
20260504120126 54 271 8.0 17.0 0.00 0.00 0.00 72 1014.0
20260504110519 53 257 4.0 11.0 0.00 0.00 0.00 70 1014.0
20260504081837 50 253 2.0 5.0 0.00 0.00 0.00 73 1013.1
20260504081335 50 247 2.0 5.0 0.00 0.00 0.00 73 1013.0
20260504080832 50 250 2.0 5.0 0.00 0.00 0.00 72 1013.1
20260504080330 50 254 2.0 5.0 0.00 0.00 0.00 72 1013.0
20260504070344 51 278 1.0 4.0 0.00 0.00 0.00 67 1012.6
20260504050615 51 263 2.0 4.0 0.00 0.00 0.00 71 1012.2
20260504050115 51 240 2.0 6.0 0.00 0.00 0.00 71 1012.2
20260504045615 51 257 2.0 6.0 0.00 0.00 0.00 71 1012.1
20260504045115 51 253 3.0 8.0 0.00 0.00 0.00 71 1012.2
20260504044539 51 277 3.0 8.0 0.00 0.00 0.00 71 1012.2
20260504044037 51 255 3.0 8.0 0.00 0.00 0.00 71 1012.3
20260504042933 51 258 2.0 6.0 0.00 0.00 0.00 69 1012.2
20260504042430 51 276 2.0 6.0 0.00 0.00 0.00 69 1012.2
20260504041932 51 245 1.0 3.0 0.00 0.00 0.00 69 1012.1
20260504040912 51 284 1.0 2.0 0.00 0.00 0.00 69 1012.0
20260504040411 51 252 1.0 4.0 0.00 0.00 0.00 68 1012.1
20260504035911 51 246 1.0 5.0 0.00 0.00 0.00 68 1012.1
20260504035410 51 232 1.0 5.0 0.00 0.00 0.00 69 1012.1
20260504034911 51 250 1.0 4.0 0.00 0.00 0.00 69 1012.0
20260504034411 51 282 1.0 3.0 0.00 0.00 0.00 70 1012.0
20260504033911 51 276 1.0 6.0 0.00 0.00 0.00 70 1011.9
20260504033409 51 263 2.0 6.0 0.00 0.00 0.00 69 1011.9
20260504032907 51 270 2.0 5.0 0.00 0.00 0.00 69 1011.9
20260504032404 51 287 2.0 5.0 0.00 0.00 0.00 70 1011.9
20260504031902 51 259 1.0 5.0 0.00 0.00 0.00 70 1011.9
20260504030857 51 257 1.0 3.0 0.00 0.00 0.00 70 1011.9
20260504030352 51 256 1.0 4.0 0.00 0.00 0.00 71 1011.9
20260504025853 51 276 1.0 4.0 0.00 0.00 0.00 73 1011.9
20260504025352 51 280 0.0 2.0 0.00 0.00 0.00 74 1011.9
20260504024817 51 280 1.0 3.0 0.00 0.00 0.00 75 1011.9
20260504024316 51 280 1.0 3.0 0.00 0.00 0.00 76 1011.9
20260504023312 50 281 0.0 2.0 0.00 0.00 0.00 75 1012.0
20260504022810 49 281 0.0 0.0 0.00 0.00 0.00 74 1012.0
20260504022311 49 281 0.0 0.0 0.00 0.00 0.00 71 1011.9
20260504021807 49 281 0.0 0.0 0.00 0.00 0.00 67 1011.9
20260504020804 49 281 0.0 1.0 0.00 0.00 0.00 62 1011.8
20260504020302 49 281 0.0 1.0 0.00 0.00 0.00 61 1011.8
20260504015802 48 281 0.0 1.0 0.00 0.00 0.00 59 1011.8
20260504015304 48 281 0.0 1.0 0.00 0.00 0.00 59 1011.8
20260504014803 48 281 0.0 0.0 0.00 0.00 0.00 59 1011.8
20260504014257 49 281 0.0 0.0 0.00 0.00 0.00 63 1011.7
20260504013751 49 281 0.0 0.0 0.00 0.00 0.00 64 1011.7
20260504013244 49 281 0.0 0.0 0.00 0.00 0.00 57 1011.6
20260504012738 49 281 0.0 0.0 0.00 0.00 0.00 56 1011.6
20260504012232 49 281 0.0 0.0 0.00 0.00 0.00 57 1011.5
20260504011221 50 281 0.0 0.0 0.00 0.00 0.00 65 1011.4
20260504010634 50 281 0.0 0.0 0.00 0.00 0.00 68 1011.4
20260504010134 50 281 0.0 0.0 0.00 0.00 0.00 52 1011.2
20260504005635 51 281 0.0 0.0 0.00 0.00 0.00 50 1011.1
20260504004631 51 281 0.0 0.0 0.00 0.00 0.00 48 1011.0
20260504004133 52 281 0.0 0.0 0.00 0.00 0.00 46 1010.9
20260504003631 53 281 0.0 0.0 0.00 0.00 0.00 45 1010.9
20260504003128 53 281 0.0 0.0 0.00 0.00 0.00 44 1010.8
20260504002126 54 281 0.0 2.0 0.00 0.00 0.00 42 1010.7
20260504001625 55 281 0.0 2.0 0.00 0.00 0.00 41 1010.6
20260504001122 55 281 0.0 1.0 0.00 0.00 0.00 40 1010.7
20260504000623 56 282 0.0 3.0 0.00 0.00 0.00 40 1010.6
20260504000121 56 282 1.0 4.0 0.00 0.00 0.00 39 1010.5
20260503235618 56 283 1.0 6.0 0.00 0.00 0.00 38 1010.4
20260503234119 57 314 3.0 7.0 0.00 0.00 0.00 37 1010.2
20260503233617 58 285 2.0 7.0 0.00 0.00 0.00 36 1010.1
20260503233115 58 282 2.0 7.0 0.00 0.00 0.00 37 1010.1
20260503232616 58 284 2.0 6.0 0.00 0.00 0.00 36 1010.0
20260503232116 59 284 2.0 7.0 0.00 0.00 0.00 35 1010.0
20260503231112 59 287 4.0 11.0 0.00 0.00 0.00 35 1009.9
20260503230613 59 295 4.0 13.0 0.00 0.00 0.00 34 1009.9
20260503230109 60 283 4.0 13.0 0.00 0.00 0.00 34 1009.9
20260503225111 59 316 4.0 16.0 0.00 0.00 0.00 34 1009.8
20260503224611 59 307 5.0 16.0 0.00 0.00 0.00 34 1009.8
20260503224111 59 274 6.0 15.0 0.00 0.00 0.00 34 1009.7
20260503223609 59 321 6.0 17.0 0.00 0.00 0.00 35 1009.8
20260503223110 59 320 6.0 17.0 0.00 0.00 0.00 34 1009.7
20260503222611 59 314 6.0 18.0 0.00 0.00 0.00 34 1009.7
20260503222107 59 293 6.0 18.0 0.00 0.00 0.00 34 1009.5
20260503221605 60 298 4.0 9.0 0.00 0.00 0.00 35 1009.6
20260503221105 60 302 5.0 19.0 0.00 0.00 0.00 35 1009.5
20260503220603 59 278 5.0 19.0 0.00 0.00 0.00 35 1009.5
20260503215604 59 285 7.0 15.0 0.00 0.00 0.00 36 1009.6
20260503215104 59 323 7.0 20.0 0.00 0.00 0.00 35 1009.5
20260503214603 59 265 7.0 20.0 0.00 0.00 0.00 36 1009.6
20260503214103 59 282 7.0 15.0 0.00 0.00 0.00 37 1009.5
20260503213605 59 254 7.0 15.0 0.00 0.00 0.00 36 1009.4
20260503213105 59 153 6.0 15.0 0.00 0.00 0.00 37 1009.4
20260503212533 58 303 7.0 16.0 0.00 0.00 0.00 38 1009.3
20260503212033 59 293 7.0 23.0 0.00 0.00 0.00 37 1009.4
20260503211533 59 306 6.0 23.0 0.00 0.00 0.00 38 1009.3
20260503211034 58 309 6.0 17.0 0.00 0.00 0.00 38 1009.4
20260503210534 58 297 6.0 17.0 0.00 0.00 0.00 40 1009.3
20260503210033 58 272 7.0 17.0 0.00 0.00 0.00 38 1009.4
20260503205537 58 294 8.0 19.0 0.00 0.00 0.00 40 1009.3
20260503205036 58 279 8.0 19.0 0.00 0.00 0.00 40 1009.3
20260503204533 58 27 7.0 19.0 0.00 0.00 0.00 40 1009.2
20260503204033 58 286 8.0 20.0 0.00 0.00 0.00 40 1009.3
20260503203531 58 290 6.0 20.0 0.00 0.00 0.00 41 1009.2
20260503203032 58 348 5.0 13.0 0.00 0.00 0.00 42 1009.3
20260503202032 57 338 6.0 15.0 0.00 0.00 0.00 43 1009.3
20260503201526 57 263 5.0 13.0 0.00 0.00 0.00 43 1009.5
20260503201022 57 127 6.0 16.0 0.00 0.00 0.00 43 1009.4
20260503200519 56 278 6.0 16.0 0.00 0.00 0.00 43 1009.4
20260503200021 56 193 7.0 23.0 0.00 0.00 0.00 45 1009.5
20260503195518 55 266 7.0 23.0 0.00 0.00 0.00 43 1009.7
20260503195018 55 283 6.0 15.0 0.00 0.00 0.00 43 1009.7
20260503194514 55 281 7.0 19.0 0.00 0.00 0.00 46 1009.7
20260503194013 55 316 9.0 20.0 0.00 0.00 0.00 45 1009.8
20260503193012 56 262 7.0 15.0 0.00 0.00 0.00 44 1009.7
20260503192514 56 304 8.0 18.0 0.00 0.00 0.00 44 1009.7
20260503192015 56 295 7.0 18.0 0.00 0.00 0.00 45 1009.7
20260503191513 55 25 7.0 20.0 0.00 0.00 0.00 46 1009.8
20260503191013 55 351 8.0 21.0 0.00 0.00 0.00 46 1009.8
20260503190514 54 323 8.0 21.0 0.00 0.00 0.00 46 1009.8
20260503190013 55 324 6.0 18.0 0.00 0.00 0.00 45 1009.8